When you browse on this site, cookies collect data to enhance your experience and personalize the content and advertising you see.
Visit our Privacy Policy to learn more. By continuing to use the site, you agree to this use of cookies and data.
EN

Hourly Weather Chaltyr

Today, 28 September, Monday

Time Temperature Precipitation Wind Pressure Humidity
00:00 +20°C° 0.1 mm 7 mps 763 mmHg 54%
01:00 +18°C° 0.4 mm 7 mps 763 mmHg 56%
02:00 +17°C° 0.4 mm 7 mps 763 mmHg 59%
03:00 +17°C° 0.4 mm 7 mps 763 mmHg 61%
04:00 +16°C° 0.2 mm 6 mps 764 mmHg 62%
05:00 +15°C° 0.2 mm 6 mps 764 mmHg 63%
06:00 +15°C° 0.2 mm 6 mps 764 mmHg 64%
07:00 +16°C° 0 mm 6 mps 764 mmHg 59%
08:00 +17°C° 0 mm 6 mps 764 mmHg 55%
09:00 +18°C° 0 mm 7 mps 764 mmHg 50%
10:00 +21°C° 0 mm 7 mps 764 mmHg 45%
11:00 +23°C° 0 mm 6 mps 765 mmHg 40%
12:00 +26°C° 0 mm 6 mps 765 mmHg 35%
13:00 +27°C° 0 mm 6 mps 764 mmHg 33%
14:00 +28°C° 0 mm 6 mps 764 mmHg 31%
15:00 +28°C° 0 mm 7 mps 764 mmHg 28%
16:00 +27°C° 0 mm 6 mps 764 mmHg 30%
17:00 +26°C° 0 mm 6 mps 764 mmHg 31%
18:00 +24°C° 0 mm 6 mps 764 mmHg 33%
19:00 +23°C° 0 mm 7 mps 764 mmHg 35%
20:00 +22°C° 0 mm 7 mps 764 mmHg 38%
21:00 +21°C° 0 mm 8 mps 764 mmHg 40%
22:00 +20°C° 0 mm 8 mps 764 mmHg 43%
23:00 +18°C° 0 mm 7 mps 764 mmHg 45%

Tomorrow, 29 September, Tuesday

Time Temperature Precipitation Wind Pressure Humidity
00:00 +17°C° 0 mm 7 mps 764 mmHg 48%
01:00 +17°C° 0 mm 7 mps 764 mmHg 50%
02:00 +16°C° 0 mm 7 mps 764 mmHg 52%
03:00 +15°C° 0 mm 7 mps 764 mmHg 54%
04:00 +14°C° 0 mm 7 mps 764 mmHg 58%
05:00 +14°C° 0 mm 7 mps 764 mmHg 61%
06:00 +12°C° 0 mm 7 mps 764 mmHg 65%
07:00 +13°C° 0 mm 8 mps 764 mmHg 62%
08:00 +15°C° 0 mm 8 mps 764 mmHg 58%
09:00 +16°C° 0 mm 8 mps 763 mmHg 55%
10:00 +18°C° 0 mm 8 mps 763 mmHg 48%
11:00 +21°C° 0 mm 8 mps 763 mmHg 42%
12:00 +23°C° 0 mm 8 mps 762 mmHg 35%
13:00 +24°C° 0 mm 8 mps 762 mmHg 33%
14:00 +26°C° 0 mm 8 mps 761 mmHg 31%
15:00 +27°C° 0 mm 9 mps 761 mmHg 29%
16:00 +26°C° 0 mm 8 mps 760 mmHg 29%
17:00 +24°C° 0 mm 8 mps 760 mmHg 30%
18:00 +23°C° 0 mm 7 mps 759 mmHg 30%
19:00 +23°C° 0 mm 8 mps 759 mmHg 32%
20:00 +22°C° 0 mm 8 mps 759 mmHg 33%
21:00 +21°C° 0 mm 9 mps 759 mmHg 35%
22:00 +21°C° 0 mm 9 mps 759 mmHg 38%
23:00 +19°C° 0 mm 9 mps 758 mmHg 40%

Day after tomorrow, 30 September, Wednesday

Time Temperature Precipitation Wind Pressure Humidity
00:00 +18°C° 0 mm 9 mps 758 mmHg 43%
01:00 +17°C° 0 mm 9 mps 758 mmHg 45%
02:00 +16°C° 0 mm 9 mps 758 mmHg 48%
03:00 +16°C° 0 mm 9 mps 758 mmHg 50%
04:00 +15°C° 0 mm 9 mps 757 mmHg 51%
05:00 +15°C° 0 mm 9 mps 757 mmHg 52%
06:00 +15°C° 0 mm 9 mps 757 mmHg 52%
07:00 +14°C° 0 mm 10 mps 757 mmHg 51%
08:00 +16°C° 0 mm 10 mps 757 mmHg 50%
09:00 +17°C° 0 mm 11 mps 757 mmHg 49%
10:00 +19°C° 0 mm 11 mps 757 mmHg 44%
11:00 +21°C° 0 mm 11 mps 756 mmHg 39%
12:00 +23°C° 0 mm 11 mps 756 mmHg 34%
13:00 +23°C° 0 mm 10 mps 756 mmHg 32%
14:00 +24°C° 0 mm 9 mps 756 mmHg 30%
15:00 +24°C° 0 mm 7 mps 756 mmHg 28%
16:00 +24°C° 0 mm 7 mps 756 mmHg 28%
17:00 +23°C° 0 mm 6 mps 756 mmHg 28%
18:00 +23°C° 0 mm 5 mps 756 mmHg 28%
19:00 +22°C° 0.2 mm 7 mps 756 mmHg 31%
20:00 +22°C° 0.2 mm 8 mps 756 mmHg 34%
21:00 +21°C° 0.2 mm 9 mps 756 mmHg 38%
22:00 +19°C° 0.3 mm 9 mps 756 mmHg 41%
23:00 +18°C° 0.3 mm 9 mps 756 mmHg 45%

1 October, Thursday

Time Temperature Precipitation Wind Pressure Humidity
00:00 +17°C° 0.3 mm 9 mps 756 mmHg 48%
01:00 +17°C° 0.2 mm 8 mps 756 mmHg 52%
02:00 +16°C° 0.2 mm 8 mps 757 mmHg 55%
03:00 +15°C° 0.2 mm 8 mps 757 mmHg 58%
04:00 +15°C° 0.2 mm 7 mps 757 mmHg 60%
05:00 +15°C° 0.2 mm 7 mps 757 mmHg 61%
06:00 +15°C° 0.2 mm 7 mps 757 mmHg 63%
07:00 +16°C° 0.2 mm 7 mps 757 mmHg 60%
08:00 +17°C° 0.2 mm 8 mps 757 mmHg 57%
09:00 +17°C° 0.2 mm 8 mps 757 mmHg 54%
10:00 +18°C° 0.1 mm 8 mps 757 mmHg 51%
11:00 +20°C° 0.1 mm 7 mps 757 mmHg 49%
12:00 +21°C° 0.1 mm 7 mps 757 mmHg 47%
13:00 +22°C° 0.1 mm 7 mps 757 mmHg 42%
14:00 +23°C° 0.1 mm 7 mps 757 mmHg 37%
15:00 +26°C° 0.1 mm 7 mps 757 mmHg 33%
16:00 +24°C° 0.1 mm 7 mps 757 mmHg 34%
17:00 +23°C° 0.1 mm 7 mps 756 mmHg 36%
18:00 +22°C° 0.1 mm 6 mps 756 mmHg 38%
19:00 +22°C° 0.1 mm 7 mps 757 mmHg 39%
20:00 +21°C° 0.1 mm 7 mps 757 mmHg 40%
21:00 +20°C° 0.1 mm 8 mps 757 mmHg 40%
22:00 +20°C° 0 mm 7 mps 757 mmHg 44%
23:00 +18°C° 0 mm 7 mps 757 mmHg 47%

2 October, Friday

Time Temperature Precipitation Wind Pressure Humidity
00:00 +17°C° 0 mm 7 mps 757 mmHg 50%
01:00 +16°C° 0 mm 7 mps 757 mmHg 52%
02:00 +16°C° 0 mm 7 mps 757 mmHg 55%
03:00 +16°C° 0 mm 7 mps 757 mmHg 57%
04:00 +15°C° 0.1 mm 7 mps 758 mmHg 56%
05:00 +15°C° 0.1 mm 6 mps 758 mmHg 55%
06:00 +15°C° 0.1 mm 6 mps 758 mmHg 53%
07:00 +16°C° 0.1 mm 6 mps 758 mmHg 52%
08:00 +16°C° 0.1 mm 7 mps 758 mmHg 51%
09:00 +17°C° 0.1 mm 7 mps 758 mmHg 50%
10:00 +20°C° 0 mm 7 mps 758 mmHg 46%
11:00 +22°C° 0 mm 7 mps 758 mmHg 42%
12:00 +23°C° 0 mm 7 mps 758 mmHg 39%
13:00 +24°C° 0 mm 6 mps 758 mmHg 38%
14:00 +26°C° 0 mm 6 mps 758 mmHg 36%
15:00 +27°C° 0 mm 5 mps 757 mmHg 35%
16:00 +26°C° 0 mm 4 mps 757 mmHg 38%
17:00 +25°C° 0 mm 4 mps 758 mmHg 40%
18:00 +24°C° 0 mm 3 mps 758 mmHg 42%
19:00 +22°C° 0 mm 3 mps 758 mmHg 44%
20:00 +21°C° 0 mm 4 mps 758 mmHg 46%
21:00 +21°C° 0 mm 4 mps 758 mmHg 48%
22:00 +20°C° 0 mm 4 mps 758 mmHg 50%
23:00 +20°C° 0 mm 4 mps 759 mmHg 52%

3 October, Saturday

Time Temperature Precipitation Wind Pressure Humidity
00:00 +19°C° 0 mm 4 mps 759 mmHg 53%
01:00 +18°C° 0 mm 4 mps 759 mmHg 56%
02:00 +17°C° 0 mm 5 mps 759 mmHg 59%
03:00 +17°C° 0 mm 5 mps 759 mmHg 61%
04:00 +16°C° 0.1 mm 5 mps 759 mmHg 63%
05:00 +16°C° 0.1 mm 5 mps 760 mmHg 64%
06:00 +16°C° 0.1 mm 5 mps 760 mmHg 66%
07:00 +16°C° 0.1 mm 5 mps 760 mmHg 64%
08:00 +17°C° 0.1 mm 5 mps 760 mmHg 62%
09:00 +17°C° 0.1 mm 6 mps 761 mmHg 61%
10:00 +20°C° 0 mm 5 mps 761 mmHg 57%
11:00 +21°C° 0 mm 5 mps 761 mmHg 53%
12:00 +22°C° 0 mm 5 mps 761 mmHg 49%
13:00 +23°C° 0 mm 5 mps 761 mmHg 47%
14:00 +25°C° 0 mm 5 mps 760 mmHg 45%
15:00 +26°C° 0 mm 5 mps 760 mmHg 43%
16:00 +25°C° 0 mm 4 mps 760 mmHg 45%
17:00 +23°C° 0 mm 4 mps 760 mmHg 46%
18:00 +22°C° 0 mm 4 mps 760 mmHg 48%
19:00 +21°C° 0 mm 4 mps 761 mmHg 48%
20:00 +21°C° 0 mm 4 mps 761 mmHg 47%
21:00 +20°C° 0 mm 4 mps 761 mmHg 46%
22:00 +20°C° 0 mm 4 mps 761 mmHg 47%
23:00 +19°C° 0 mm 4 mps 761 mmHg 47%
Show more